Regional Weather Roundup
Issued by NWS

Home | Current Version | Previous Version | Graphics & Text | Print | Product List | Glossary On
Versions: 1 2 3 4 5 6 7 8 9 10 11 12 13 14 15 16 17 18 19 20 21 22 23 24 25 26 27 28 29 30 31 32 33 34 35 36 37 38 39 40 41 42 43 44 45 46 47 48 49 50
000
ASUS43 KTOP 240259
RWRKS

WEATHER ROUNDUP FOR KANSAS
NATIONAL WEATHER SERVICE GOODLAND KS
1000 PM CDT SAT MAY 23 2015

NOTE:  "FAIR" INDICATES FEW OR NO CLOUDS BELOW 12,000 FEET WITH NO
SIGNIFICANT WEATHER AND/OR OBSTRUCTIONS TO VISIBILITY.

KSZ001>006-013>018-027>032-041>047-240400-
NORTHWEST KANSAS

CITY           SKY/WX    TMP DP  RH WIND       PRES   REMARKS
GOODLAND       CLOUDY    54  51  90 CALM      29.89R
HAYS           CLOUDY    59  52  77 E7        29.93R
HILL CITY      LGT RAIN  58  57  97 E8        29.94R FOG
RUSSELL        CLOUDY    58  57  97 NE7       29.92R
$$

KSZ061>065-074>080-084>089-240400-
SOUTHWEST KANSAS

CITY           SKY/WX    TMP DP  RH WIND       PRES   REMARKS
DODGE CITY     CLOUDY    58  55  90 SE10      29.90R FOG
ELKHART          N/A     58  52  81 S18         N/A
GARDEN CITY    CLOUDY    58  57  97 E12       29.88R
GREAT BEND     CLOUDY    59  54  82 NE5       29.90S
LIBERAL        CLOUDY    61  55  82 SE15G23   29.88R
$$

KSZ066>073-081>083-090>101-240400-
SOUTHEAST KANSAS

CITY           SKY/WX    TMP DP  RH WIND       PRES   REMARKS
CHANUTE        HVY RAIN  66  65  96 E16       29.91F FOG
COFFEYVILLE    HVY RAIN  66  66 100 S16       29.94R FOG
HUTCHINSON     CLOUDY    59  56  89 N5        29.90R
NEWTON         CLOUDY    59  55  88 SE12      29.87R
PARSONS        HVY RAIN  68  67  96 SE9       29.92S FOG
WICHITA INTL   LGT RAIN  61  58  90 E10       29.84R
WICHITA JABRA  CLOUDY    61  60  97 SE12      29.83F
WINFIELD       LGT RAIN  61  60  97 E9        29.88R
$$

KSZ007>012-019>026-033>040-048>060-102>105-240400-
NORTHEAST KANSAS

CITY           SKY/WX    TMP DP  RH WIND       PRES   REMARKS
CONCORDIA      CLOUDY    60  58  92 E8        29.95R
EMPORIA        HVY RAIN  61  60  97 NE17      29.96F FOG
LAWRENCE       LGT RAIN  62  60  93 E12       30.02F
MANHATTAN      LGT RAIN  63  62  97 E26G40    29.78F
OLATHE IND     LGT RAIN  62  61  96 E10       30.02F FOG
OLATHE EXE     RAIN      62  61  96 E8        30.02F FOG
SALINA         CLOUDY    61  58  90 N5        29.92R
TOPEKA BILLARD RAIN      63  62  97 E9        30.01F FOG
TOPEKA FORBES  RAIN      63  61  93 NE10      30.00F FOG
$$


USA.gov is the U.S. government's official web portal to all federal, state and local government web resources and services.